Hourly Data Report for October 02, 2013

All times are specified in Local Standard Time (LST). Add 1 hour to adjust for Daylight Saving Time where and when it is observed.

HALL BEACH A
NUNAVUT

68°46'33.000" N
81°14'33.000" W
9.10 m
2402354
71293
YUX

Download Data

Hourly Data (October 2013)
Hourly Data Report for October 2, 2013
Temp Definition
°C
Dew Point Temp Definition
°C
Rel Hum Definition
%
Wind Dir Definition
10's deg

Wind Spd Definition
km/h
Visibility Definition
km
Stn Press Definition
kPa
Hmdx Definition


Wind Chill Definition


Weather Definition


TIME
00:00 Legend Double Dagger -3.8 -5.1 91 35 24 16.1 100.76   -11 LegendNANA
01:00 Legend Double Dagger -3.9 -5.2 91 35 28 16.1 100.77   -11 LegendNANA
02:00 Legend Double Dagger -3.9 -5.4 90 35 24 16.1 100.81   -11 LegendNANA
03:00 Legend Double Dagger -3.8 -5.5 88 35 21 16.1 100.81   -10 LegendNANA
04:00 Legend Double Dagger -4.2 -5.3 92 32 17 16.1 100.82   -10 LegendNANA
05:00 Legend Double Dagger -4.8 -6.1 91 33 15 16.1 100.84   -10 LegendNANA
06:00 Legend Double Dagger -4.6 -6.0 90 34 24 16.1 100.85   -12 LegendNANA
07:00 Legend Double Dagger -4.0 -5.9 87 36 32 16.1 100.87   -12 LegendNANA
08:00 Legend Double Dagger -3.7 -5.7 86 36 37 16.1 100.88   -12 LegendNANA
09:00 Legend Double Dagger -3.6 -5.7 86 36 33 16.1 100.91   -12 LegendNANA
10:00 Legend Double Dagger -3.2 -5.8 82 36 33 16.1 100.93   -11 LegendNANA
11:00 Legend Double Dagger -3.3 -6.2 81 1 32 16.1 100.99   -11 LegendNANA
12:00 Legend Double Dagger -3.4 -5.7 84 1 30 16.1 101.00   -11 LegendNANA
13:00 Legend Double Dagger -3.3 -5.8 83 2 37 16.1 101.02   -12 LegendNANA
14:00 Legend Double Dagger -3.3 -6.1 81 36 30 16.1 101.07   -11 LegendNANA
15:00 Legend Double Dagger -3.4 -5.9 83 1 33 16.1 101.09   -11 LegendNANA
16:00 Legend Double Dagger -3.5 -6.0 83 36 32 16.1 101.16   -11 LegendNANA
17:00 Legend Double Dagger -4.0 -6.6 82 1 26 16.1 101.21   -11 LegendNANA
18:00 Legend Double Dagger -4.0 -6.3 84 35 22 16.1 101.23   -11 LegendNANA
19:00 Legend Double Dagger -3.9 -6.2 84 36 24 16.1 101.25   -11 LegendNANA
20:00 Legend Double Dagger -4.0 -6.5 83 35 32 16.1 101.26   -12 LegendNANA
21:00 Legend Double Dagger -4.0 -6.5 83 36 26 16.1 101.29   -11 LegendNANA
22:00 Legend Double Dagger -3.8 -6.3 83 35 28 16.1 101.30   -11 LegendNANA
23:00 Legend Double Dagger -3.8 -6.7 80 36 26 16.1 101.31   -11 LegendNANA

Notes on Data Quality.

Legend

  • E = Estimated
  • M = Missing
  • NA = Not Available
  • ‡ = Partner data that is not subject to review by the National Climate Archives
Date modified: